{"data":{"norad_id":66245,"intl_designator":"2025-245M","name":"STARLINK-35503","alt_names":[],"object_type":"PAYLOAD","status":"ACTIVE","operator":null,"country":"US","launch_date":"2025-10-29","launch_site_code":"AFETR","launch_vehicle":null,"mission":null,"orbit_class":"UNKNOWN","rcs_meters":null,"size_class":null,"mass_kg":null,"dimensions":null,"purposes":["comms"],"wikipedia_slug":null,"has_3d_model":false,"image_url":null,"decayed_at":null,"tle_current":{"epoch":"2026-05-25T02:46:20.144352Z","epoch_age_seconds":68664,"freshness":"FRESH","line1":"1 66245U 25245M   26145.11551093  .00012028  00000+0  41748-3 0  9993","line2":"2 66245  53.1606 289.1841 0001092 101.5978 258.5145 15.30206459 32901","mean_motion":15.30206459,"eccentricity":0.0001092,"inclination_deg":53.1606,"raan_deg":289.1841,"arg_perigee_deg":101.5978,"mean_anomaly_deg":258.5145,"bstar":0.00041748,"rev_number":3290,"period_min":94.104948487869,"perigee_km":474.44740013738,"apogee_km":475.94416801742,"semimajor_km":6853.3327840774,"source":"CELESTRAK","updated_at":"2026-05-25T13:38:21.135735Z"}}}